Regional Weather Roundup
Issued by NWS

Home | Current Version | Previous Version | Graphics & Text | Print | Product List | Glossary On
Versions: 1 2 3 4 5 6 7 8 9 10 11 12 13 14 15 16 17 18 19 20 21 22 23 24 25 26 27 28 29 30 31 32 33 34 35 36 37 38 39 40 41 42 43 44 45 46 47 48 49 50
000
ASUS43 KLMK 011302
RWRKY
KENTUCKY REGIONAL WEATHER ROUNDUP
NATIONAL WEATHER SERVICE LOUISVILLE KY
900 AM EDT SAT AUG 01 2015

NOTE "FAIR" INDICATES FEW OR NO CLOUDS BELOW 12,000 FEET
WITH NO SIGNIFICANT WEATHER AND/OR OBSTRUCTIONS TO VISIBILITY.

KYZ001>023-026-027-061>063-070>075-011400-
WESTERN AND SOUTH CENTRAL KENTUCKY

CITY           SKY/WX    TMP DP  RH WIND       PRES   REMARKS
PADUCAH        SUNNY     78  69  73 CALM      30.03R
HENDERSON      SUNNY     75  66  73 N5        30.03R
OWENSBORO      SUNNY     78  66  66 N6        30.04R
HOPKINSVILLE   SUNNY     76  70  82 W3        30.05R
BOWLING GREEN  SUNNY     76  67  73 W3        30.05R
GLASGOW        NOT AVBL
$$

KYZ024-025-028>034-038-045-046-053-011400-
NORTH CENTRAL KENTUCKY

CITY           SKY/WX    TMP DP  RH WIND       PRES   REMARKS
LOUISVILLE/SDF MOSUNNY   78  64  61 W3        30.01R
LOUISVILLE/LOU SUNNY     76  65  68 CALM      30.02S
FORT KNOX      SUNNY     74  67  79 NW5       30.02R
$$

KYZ035>037-039>044-047>052-055>060-089>105-011400-
NORTHEAST KENTUCKY

CITY           SKY/WX    TMP DP  RH WIND       PRES   REMARKS
LEXINGTON      SUNNY     73  63  70 W3        30.03R
COVINGTON      NOT AVBL
FRANKFORT      SUNNY     73  61  65 NW5       30.02R
$$

KYZ054-064>069-076>088-106>120-011400-
SOUTHEAST KENTUCKY

CITY           SKY/WX    TMP DP  RH WIND       PRES   REMARKS
JACKSON        SUNNY     70  62  76 CALM      30.04S
LONDON         SUNNY     69  61  75 S5        30.06R
SOMERSET       NOT AVBL
MIDDLESBORO    CLOUDY    61  61  99 CALM      30.08S FOG
MONTICELLO     SUNNY     70  67  90 CALM      30.09R
$$




USA.gov is the U.S. government's official web portal to all federal, state and local government web resources and services.